This demonstration page uses our WeatherBlox Daily Observations layout. Learn more.

Left ArrowRight Arrow

Hourly Observations for April 5, 2017

Temp ( °F °C ) Dew Point ( °F °C ) Humidity (%) Winds ( mph kmh ) Pressure ( in mb ) Visibility ( mi km ) Precip ( " mm )
12:59 am 00:59 Clear 69 20.6 51 10.6 53 53 WSW 8 13 29.80 1009 10 16 0.00 0.00
1:59 am 01:59 Clear 69 20.6 51 10.6 53 53 WSW 7 11 29.80 1009 10 16 0.00 0.00
2:59 am 02:59 Clear 66 18.9 52 11.1 61 61 WSW 5 7 29.81 1010 10 16 0.00 0.00
3:59 am 03:59 Clear 59 15 51 10.6 75 75 Calm 29.83 1010 10 16 0.00 0.00
4:59 am 04:59 Clear 62 16.7 52 11.1 70 70 W 3 6 29.85 1011 10 16 0.00 0.00
5:59 am 05:59 Clear 57 13.9 51 10.6 81 81 Calm 29.87 1011 10 16 0.00 0.00
6:59 am 06:59 Mostly Sunny 56 13.3 51 10.6 84 84 SW 3 6 29.90 1013 10 16 0.00 0.00
7:59 am 07:59 Mostly Sunny 63 17.2 55 12.8 76 76 Calm 29.93 1013 10 16 0.00 0.00
8:59 am 08:59 Mostly Sunny 70 21.1 50 10 49 49 NNE 6 9 29.93 1014 10 16 0.00 0.00
9:59 am 09:59 Mostly Sunny 72 22.2 46 7.8 40 40 E 9 15 29.94 1014 10 16 0.00 0.00
10:59 am 10:59 Partly Cloudy 74 23.3 45 7.2 36 36 ENE 12 19 29.95 1014 10 16 0.00 0.00
11:59 am 11:59 Partly Cloudy 72 22.2 46 7.8 40 40 E 10 17 29.95 1014 10 16 0.00 0.00
12:59 pm 12:59 Mostly Cloudy 73 22.8 44 6.7 35 35 E 14 22 29.94 1014 10 16 0.00 0.00
1:59 pm 13:59 Mostly Cloudy 74 23.3 45 7.2 36 36 ENE 15 24 29.93 1014 10 16 0.00 0.00
2:59 pm 14:59 Mostly Cloudy 74 23.3 44 6.7 34 34 SE 12 19 29.91 1013 10 16 0.00 0.00
3:59 pm 15:59 Cloudy 72 22.2 43 6.1 35 35 E 15 24 29.89 1012 10 16 0.00 0.00
4:59 pm 16:59 Cloudy 71 21.7 43 6.1 36 36 SE 9 15 29.90 1013 10 16 0.00 0.00
5:59 pm 17:59 Cloudy 69 20.6 42 5.6 38 38 ESE 9 15 29.89 1012 10 16 0.00 0.00
6:59 pm 18:59 Cloudy 68 20 41 5 38 38 SE 13 20 29.91 1013 10 16 0.00 0.00
7:59 pm 19:59 Cloudy 66 18.9 43 6.1 43 43 SE 12 19 29.89 1012 10 16 0.00 0.00
8:59 pm 20:59 Cloudy 64 17.8 45 7.2 50 50 SE 8 13 29.87 1012 10 16 0.00 0.00
9:59 pm 21:59 Cloudy 63 17.2 50 10 63 63 SE 6 9 29.83 1010 10 16 0.00 0.00
10:59 pm 22:59 Cloudy 63 17.2 54 12.2 73 73 SE 8 13 29.77 1008 10 16 0.00 0.00
11:59 pm 23:59 Cloudy 64 17.8 58 14.4 81 81 SSE 9 15 29.75 1008 10 16 0.00 0.00

Powered by AerisWeather